CW2099 Weather Reports


Display with metric or nautical units.
time (UTC)temp
F
wind
direction
speed
MPH
gust
MPH
rain 1hr
in
rain 24hr
in
rain mn
in
humidity
%
barometer
mb
20260905183010 73 279 3.0 7.0 0.00 0.02 0.00 61 1016.9
20260905180007 72 273 1.0 8.0 0.00 0.02 0.00 61 1017.0
20260905174512 72 265 4.0 11.0 0.00 0.02 0.00 61 1017.1
20260905173008 71 270 3.0 8.0 0.00 0.02 0.00 64 1017.2
20260905170106 70 265 5.0 12.0 0.00 0.02 0.00 65 1017.4
20260905164556 70 296 4.0 8.0 0.00 0.02 0.00 66 1017.6
20260905163054 69 269 6.0 9.0 0.00 0.02 0.00 65 1017.6
20260905160050 68 267 6.0 10.0 0.00 0.02 0.00 69 1017.8
20260905154546 68 267 3.0 11.0 0.00 0.02 0.00 73 1017.6
20260905153044 67 277 4.0 9.0 0.00 0.02 0.00 74 1017.3
20260905150038 66 281 4.0 10.0 0.00 0.02 0.00 76 1017.0
20260905144541 65 265 2.0 7.0 0.00 0.02 0.00 78 1016.9
20260905143032 65 256 3.0 7.0 0.00 0.02 0.00 78 1017.0
20260905140029 63 267 4.0 8.0 0.00 0.02 0.00 80 1017.0
20260905134527 62 277 2.0 4.0 0.00 0.02 0.00 81 1017.5
20260905133024 62 267 2.0 7.0 0.00 0.02 0.00 82 1017.1
20260905130020 61 267 2.0 3.0 0.00 0.02 0.00 83 1016.7
20260905124535 61 269 2.0 4.0 0.00 0.02 0.00 83 1016.5
20260905123017 61 265 2.0 4.0 0.00 0.02 0.00 83 1016.2
20260905120013 61 266 0.0 3.0 0.00 0.02 0.00 84 1016.1
20260905114531 61 266 2.0 4.0 0.00 0.02 0.00 84 1015.7
20260905113012 62 265 1.0 3.0 0.00 0.02 0.00 84 1015.5
20260905110012 62 263 1.0 4.0 0.00 0.03 0.00 85 1015.6
20260905104511 62 266 1.0 4.0 0.00 0.03 0.00 85 1015.6
20260905103024 62 273 0.0 3.0 0.00 0.03 0.00 85 1015.6
20260905100010 62 273 0.0 3.0 0.00 0.04 0.00 85 1015.5
20260905094509 62 273 0.0 0.0 0.00 0.04 0.00 85 1015.6
20260905093009 62 273 0.0 3.0 0.00 0.04 0.00 85 1015.6
20260905090008 62 267 2.0 6.0 0.00 0.07 0.00 86 1015.5
20260905084525 62 284 1.0 6.0 0.00 0.07 0.00 86 1015.4
20260905083014 62 269 1.0 3.0 0.00 0.07 0.00 86 1015.5
20260905080006 61 267 3.0 6.0 0.00 0.07 0.00 86 1015.6
20260905074505 61 270 0.0 6.0 0.00 0.07 0.00 86 1015.7
20260905073011 62 259 1.0 4.0 0.00 0.07 0.00 86 1015.6
20260905070113 62 248 1.0 4.0 0.00 0.07 0.00 86 1015.4
20260905064559 63 267 2.0 8.0 0.00 0.07 0.00 86 1015.5
20260905063058 63 263 2.0 4.0 0.00 0.07 0.00 86 1015.2
20260905060056 63 271 0.0 6.0 0.00 0.07 0.00 87 1015.1
20260905054555 63 265 1.0 4.0 0.00 0.07 0.00 86 1015.0
20260905053108 63 266 3.0 6.0 0.00 0.07 0.00 86 1015.1
20260905050052 63 272 2.0 6.0 0.00 0.08 0.07 86 1014.9
20260905044551 63 265 4.0 7.0 0.00 0.08 0.07 86 1014.9
20260905043050 63 265 4.0 7.0 0.00 0.08 0.07 86 1015.0
20260905040050 63 275 2.0 6.0 0.00 0.08 0.07 86 1014.9
20260905034552 63 265 1.0 7.0 0.00 0.08 0.07 86 1015.0
20260905033054 63 263 2.0 4.0 0.00 0.08 0.07 86 1015.0
20260905030056 63 267 0.0 6.0 0.00 0.08 0.07 86 1015.1
20260905024620 63 253 5.0 9.0 0.00 0.08 0.07 86 1015.0
20260905023055 64 269 3.0 8.0 0.00 0.08 0.07 85 1015.0
20260905020050 64 265 3.0 7.0 0.00 0.08 0.07 85 1014.9
20260905014546 64 260 1.0 9.0 0.00 0.08 0.07 86 1014.9
20260905013045 65 277 5.0 9.0 0.00 0.08 0.07 85 1014.3
20260905010044 65 269 4.0 10.0 0.00 0.08 0.07 85 1014.4
20260905004550 65 265 5.0 11.0 0.00 0.08 0.07 85 1014.1
20260905003040 66 261 6.0 12.0 0.00 0.08 0.07 85 1014.1
20260905000039 66 266 6.0 10.0 0.00 0.08 0.07 85 1014.0
20260904234546 66 257 3.0 10.0 0.00 0.08 0.07 85 1013.8
20260904233052 67 263 6.0 10.0 0.00 0.08 0.07 85 1013.4
20260904230035 67 267 3.0 6.0 0.01 0.08 0.07 85 1013.2
20260904224542 67 271 2.0 4.0 0.01 0.08 0.07 85 1013.3
20260904223040 68 271 0.0 6.0 0.01 0.08 0.07 86 1013.1
20260904220034 68 271 2.0 6.0 0.00 0.07 0.06 86 1012.9
20260904214541 68 268 1.0 6.0 0.00 0.07 0.06 86 1012.6
20260904213033 68 275 0.0 3.0 0.00 0.07 0.06 86 1012.5
20260904210031 68 281 2.0 8.0 0.00 0.07 0.06 86 1012.3
20260904204531 68 281 3.0 9.0 0.00 0.07 0.06 86 1012.1
20260904203032 68 274 3.0 5.0 0.00 0.07 0.06 86 1012.2
20260904200031 68 267 3.0 6.0 0.01 0.07 0.06 86 1012.4
20260904194529 67 269 4.0 7.0 0.01 0.07 0.06 86 1012.5
20260904193041 67 271 3.0 6.0 0.01 0.07 0.06 86 1012.5
20260904190025 67 269 1.0 6.0 0.00 0.06 0.05 87 1012.6
20260904184525 67 270 2.0 4.0 0.00 0.06 0.05 87 1012.5